AO-07 1 07530U 74089B 17005.52980958 -.00000023 00000-0 13052-3 0 9992 2 07530 101.6068 337.5798 0011790 278.7802 191.5243 12.53624862928477 UO-11 1 14781U 84021B 17004.87074723 .00000079 00000-0 16003-4 0 9996 2 14781 097.7221 056.3886 0008968 024.1218 336.0414 14.82844960745144 LO-19 1 20442U 90005G 17004.87965178 .00000021 00000-0 23607-4 0 9994 2 20442 098.5626 303.1753 0010640 270.8762 089.1203 14.32844614408175 HUBBLE 1 20580U 90037B 17005.80104167 .00000615 00000-0 27085-4 0 9992 2 20580 28.4711 0.4300 0002583 222.1745 143.6045 15.08639081265735 MET-2/21 1 22782U 93055A 17004.91049299 .00000067 00000-0 47053-4 0 9994 2 22782 082.5492 153.1602 0022823 166.2193 307.0038 13.83795916178847 AO-27 1 22825U 93061C 17004.88214809 .00000017 00000-0 24330-4 0 9994 2 22825 98.7894 328.6672 0009489 88.4150 271.8119 14.29981907214068 IO-26 1 22826U 93061D 17004.88066082 .00000016 00000-0 23812-4 0 9996 2 22826 98.7836 328.7667 0010013 80.1001 280.1311 14.30309097214231 FO-29 1 24278U 96046B 17005.70736568 -.00000009 00000-0 25767-4 0 9994 2 24278 98.5834 270.3976 0351004 38.3696 324.1860 13.53074042 6902 NOAA-15 1 25338U 98030A 17005.47563194 .00000031 00000-0 31971-4 0 9992 2 25338 98.7843 16.0443 0009994 323.8045 36.2457 14.25771878969816 GO-32 1 25397U 98043D 17004.85620052 .00000009 00000-0 22749-4 0 9997 2 25397 98.5925 310.7949 0002335 101.9651 258.1790 14.23612236960552 ISS 1 25544U 98067A 17005.81998919 .00003110 00000-0 54466-4 0 9991 2 25544 51.6431 127.7232 0007357 54.9813 46.1023 15.53998937 36507 NO-44 1 26931U 01043C 17005.12701851 -.00000018 00000-0 24840-4 0 9999 2 26931 67.0505 151.9067 0006210 281.4857 78.5547 14.30442052797025 SO-50 1 27607U 02058C 17005.11237711 .00000012 00000-0 22327-4 0 9996 2 27607 64.5556 263.8697 0043604 165.9867 194.2457 14.75267786755052 CO-55 1 27844U 03031E 17004.90565358 .00000061 00000-0 47411-4 0 9993 2 27844 098.6914 016.2812 0010764 098.9875 261.2521 14.22006286701073 CO-57 1 27848U 03031J 17005.49485550 .00000044 00000-0 40046-4 0 9995 2 27848 98.7008 17.0492 0010665 105.5303 254.7052 14.21625356701087 RS-22 1 27939U 03042A 17005.87703716 .00000109 00000-0 28023-4 0 9990 2 27939 97.9139 156.0987 0013495 27.0370 126.1043 14.66507437709520 NOAA-18 1 28654U 05018A 17005.53830471 .00000026 00000-0 39745-4 0 9993 2 28654 99.1928 23.6916 0014585 164.6049 195.5568 14.12320715599306 CO-58 1 28895U 05043F 17005.43657908 .00000198 00000-0 47020-4 0 9994 2 28895 97.8449 175.4138 0015711 300.9214 59.0444 14.63323525596682 CO-65 1 32785U 08021C 17004.88365903 .00000316 00000-0 40306-4 0 9997 2 32785 97.5825 36.4853 0012955 356.1294 3.9820 14.87768414470614 AAUSAT2 1 32788U 08021F 17004.65083280 .00000988 00000-0 98709-4 0 9995 2 32788 97.5797 46.6382 0011007 323.0181 37.0279 14.93625624471260 DO-64 1 32789U 08021G 17004.75188436 .00001558 00000-0 11622-3 0 9998 2 32789 097.5827 066.3025 0011294 300.8424 059.1690 15.04257800472194 CO-66 1 32791U 08021J 17005.54063426 .00000418 00000-0 48728-4 0 9992 2 32791 97.5817 40.9581 0012863 340.0858 19.9856 14.90052100470928 RS-30 1 32953U 08025A 17005.38188518 .00000035 00000-0 18264-3 0 9994 2 32953 82.5037 340.9017 0017874 282.7214 77.1868 12.43074243391196 PRISM 1 33493U 09002B 17005.71392250 .00000399 00000-0 41856-4 0 9994 2 33493 98.1885 241.0852 0014302 259.7065 100.2550 14.95389811431492 NOAA-19 1 33591U 09005A 17005.52091603 .00000118 00000-0 89278-4 0 9992 2 33591 99.0700 330.2406 0014324 13.6189 346.5366 14.12141869407694 TISAT-1 1 36799U 10035E 17004.85390300 .00000609 00000-0 68845-4 0 9993 2 36799 98.0454 124.5002 0013458 139.4872 220.7350 14.90177282351464 JUGNU 1 37839U 11058B 17005.18330010 .00000307 00000-0 21828-4 0 9999 2 37839 19.9627 358.8343 0018975 185.8918 261.4070 14.12567605270624 SRMSAT 1 37841U 11058D 17005.44817179 .00000276 00000-0 67360-5 0 9994 2 37841 19.9732 35.5614 0012075 93.7086 46.0508 14.10561500270272 AO-71 1 37854U 11061E 17004.97161650 .00003247 00000-0 18217-3 0 9991 2 37854 101.7027 155.5738 0169830 197.8154 161.7057 15.03390566282404 HRBE 1 37855U 11061F 17005.13434399 .00003008 00000-0 16634-3 0 9990 2 37855 101.7166 153.7392 0182967 202.7557 156.5468 15.02341635282303 ALMASAT-1 1 38078U 12006B 17005.55621139 .00030230 37032-5 36499-3 0 9992 2 38078 69.4438 207.4915 0342853 169.7229 191.1181 15.13911683260100 HORYU-2 1 38340U 12025D 17004.97000984 .00000257 00000-0 46128-4 0 9996 2 38340 98.3704 3.2066 0012915 90.8979 269.3708 14.75223439249222 RS-40 1 38735U 12041C 17005.80664635 .00000010 00000-0 -22213-5 0 9992 2 38735 82.4753 65.4424 0016919 26.0308 334.1619 12.42574086201534 BEESAT-3 1 39134U 13015E 17005.82940943 .00002397 00000-0 12960-3 0 9994 2 39134 64.8700 30.2038 0022985 308.6020 51.3047 15.17094781204849 BEESAT-2 1 39136U 13015G 17004.51417712 .00001529 00000-0 92550-4 0 9994 2 39136 64.8705 42.9481 0023699 303.3017 56.5837 15.14524480204484 ZACUBE-1 1 39417U 13066B 17005.56449168 .00000298 00000-0 44275-4 0 9991 2 39417 97.6534 55.4978 0060914 82.0659 278.7462 14.80591994168717 TRITON-1 1 39427U 13066M 17005.83290580 .00000266 00000-0 50516-4 0 9994 2 39427 97.6488 31.9934 0115323 148.1830 212.6411 14.67354137167235 GOMX-1 1 39430U 13066Q 17005.81944214 .00000202 00000-0 45827-4 0 9995 2 39430 97.6630 17.2788 0151781 195.3158 164.3424 14.58763152166267 LO-74 1 39440U 13066AA 17005.13818043 .00000210 00000-0 36456-4 0 9998 2 39440 97.6490 45.5844 0082306 108.9956 252.0195 14.75339938168050 AO-73 1 39444U 13066AE 17005.55553190 .00000360 00000-0 51217-4 0 9995 2 39444 97.6548 56.3381 0060069 79.5421 281.2554 14.81300665167533 SPROUT 1 39770U 14029E 17005.82424303 .00000803 00000-0 98259-4 0 9999 2 39770 97.8728 106.8738 0010345 134.9073 225.2969 14.85909779142025 DUCHIFAT-1 1 40021U 14033M 17005.22138669 .00000548 00000-0 63148-4 0 9991 2 40021 97.9246 278.1109 0014340 114.9153 245.3556 14.89670154138333 NANOSATCBR1 1 40024U 14033Q 17005.21856623 .00000442 00000-0 52926-4 0 9995 2 40024 97.9214 277.2394 0013609 115.3653 244.8974 14.89027327138295 EO-79 1 40025U 14033R 17005.18015932 .00000331 00000-0 41866-4 0 9990 2 40025 97.9202 276.4715 0013801 117.7332 242.5286 14.88266236138244 DTUSAT-2 1 40030U 14033W 17004.74083651 .00000411 00000-0 50909-4 0 9997 2 40030 97.9174 275.3058 0013288 113.5236 246.7378 14.87893569138154 EO-80 1 40032U 14033Y 17005.17937442 .00000323 00000-0 41408-4 0 9999 2 40032 97.9182 275.7516 0013272 112.6418 247.6203 14.87827515138204 ANTELSAT 1 40034U 14033AA 17005.66247235 .00000309 00000-0 53710-4 0 9992 2 40034 97.8801 254.4167 0060504 95.2377 265.5740 14.73579849136997 VELOX-1 1 40057U 14034E 17005.78095136 .00000404 00000-0 65036-4 0 9992 2 40057 98.1896 103.6132 0010364 212.7909 147.2658 14.76964952135789 DAURIA DX 1 1 40071U 14037C 17005.84365825 .00000163 00000-0 28523-4 0 9995 2 40071 98.3310 110.5868 0007696 208.2938 151.7856 14.80942029134940 UKUBE-1 1 40074U 14037F 17005.79970927 .00000409 00000-0 57045-4 0 9991 2 40074 98.3377 113.5830 0003992 202.1027 158.0031 14.83337940135102 HODOYOSHI-1 1 40299U 14070B 17005.87902068 .00001003 00000-0 47072-4 0 9997 2 40299 97.4164 91.0294 0012110 307.4991 164.9528 15.21907169120256 CHUBUSAT-1 1 40300U 14070C 17005.82384137 .00001028 00000-0 50065-4 0 9999 2 40300 97.4103 88.6221 0019806 313.7518 156.1315 15.20471745120115 QSAT-EOS 1 40301U 14070D 17005.89564878 .00002154 00000-0 95505-4 0 9998 2 40301 97.4042 88.3572 0027197 310.0453 162.8078 15.22383602120132 FIREBIRD FU3 1 40377U 15003B 17005.12083344 .00003809 00000-0 16797-3 0 9991 2 40377 99.1066 156.8314 0139245 181.9341 178.1365 15.14293211106325 FIREBIRD FU4 1 40378U 15003C 17005.70998606 .00005013 00000-0 21913-3 0 9997 2 40378 99.1068 157.5614 0139453 179.9206 180.2067 15.14317593106410 GRIFEX 1 40379U 15003D 17005.71091194 .00003437 00000-0 15955-3 0 9992 2 40379 99.1072 156.0067 0144474 185.5498 174.4134 15.12132367106329 NO-84 1 40654U 15025D 17005.11760573 .00007087 00000-0 14551-3 0 03316 2 40654 054.9980 243.6717 0191004 215.6394 143.1774 15.30124052054909 NO-83 1 40655U 15025E 17005.59327072 .00010876 00000-0 19081-3 0 03696 2 40655 054.9841 226.6892 0164864 224.7003 134.0648 15.37513289055162 DEORBITSAIL 1 40719U 15032E 17005.21358665 .00000467 00000-0 75428-4 0 9998 2 40719 97.9975 260.8489 0015765 311.2630 48.7220 14.75862128 80281 NUDT-PHONESAT 1 40900U 15049B 17005.84536403 .00003249 00000-0 16082-3 0 9996 2 40900 97.4447 16.1869 0016140 73.7695 286.5314 15.18397297 71818 XW-2A 1 40903U 15049E 17005.88714943 .00002731 00000-0 75428-4 0 9995 2 40903 97.4352 29.5671 0016738 125.1479 235.1337 15.37828660 72696 XW-2C 1 40906U 15049H 17005.82442488 .00001046 00000-0 60715-4 0 9995 2 40906 97.4540 14.6153 0016872 59.9289 300.3613 15.14174372 71667 XW-2D 1 40907U 15049J 17005.81758365 .00001116 00000-0 64442-4 0 9998 2 40907 97.4508 14.4157 0016215 58.4861 301.7953 15.14253543 71665 LILACSAT-2 1 40908U 15049K 17005.85883310 .00000561 00000-0 35439-4 0 9999 2 40908 97.4609 14.3683 0017632 55.1312 305.1573 15.12898356 71627 XW-2F 1 40910U 15049M 17005.83904223 .00001634 00000-0 90871-4 0 9990 2 40910 97.4534 14.8761 0017095 56.7051 303.5816 15.14967298 71568 XW-2B 1 40911U 15049N 17005.82010241 .00001086 00000-0 62834-4 0 9997 2 40911 97.4553 14.7083 0016118 58.7587 301.5221 15.14224348 71567 DCBB 1 40912U 15049P 17005.78829823 .00001597 00000-0 83960-4 0 9997 2 40912 97.4515 16.1956 0017291 51.7373 35.6243 15.17002315 71661 TW-1C 1 40926U 15051B 17005.77215567 .00007153 00000-0 18032-3 0 9999 2 40926 97.2517 46.7021 0014234 43.6913 68.8783 15.40074172 71902 TW-1A 1 40928U 15051D 17005.74796807 .00002841 00000-0 86277-4 0 9995 2 40928 97.2469 44.4451 0014838 64.0443 29.1834 15.34798996 71779 IO-86 1 40931U 15052B 17004.91510433 .00000639 00000-0 80740-7 0 9992 2 40931 6.0017 316.8679 0012808 91.1886 268.9761 14.76505085 68795 GomX-3 1 40949U 98067HA 16292.18357804 .08527750 12374-4 77882-3 0 9992 2 40949 51.6055 106.7696 0006699 286.1344 73.8944 16.38002265 59645 LQSat 1 40958U 15057A 17005.89073938 .00000043 00000-0 14539-4 0 9997 2 40958 97.9960 83.9145 0017182 223.3244 136.6588 14.72935478 67221 AO-85 1 40967U 15058D 17005.48650103 .00000128 00000-0 33868-4 0 03587 2 40967 064.7772 352.3533 0179893 137.8886 223.6205 14.75286896053119 ATHENOXAT-1 1 41168U 15077C 17005.90299030 .00002410 00000-0 10114-3 0 9992 2 41168 14.9927 274.4367 0012278 288.6862 145.3709 15.10952437 58455 ChubuSat-2 1 41338U 16012B 17005.48267824 .00000519 00000-0 34201-4 0 9992 2 41338 31.0041 65.5060 0013989 249.3594 110.5541 14.99612632 48549 ChubuSat-3 1 41339U 16012C 17005.83299960 .00000426 00000-0 26735-4 0 9998 2 41339 31.0114 62.6932 0013964 259.1929 100.7147 14.99827556 48570 Horyu-4 1 41340U 16012D 17005.53960504 .00000799 00000-0 55241-4 0 9993 2 41340 31.0060 63.0702 0014285 262.8981 97.0030 15.00385899 48568 OUFTI-1 1 41458U 16025C 17005.11154365 .00001089 00000-0 62933-4 0 9990 2 41458 98.2019 33.2837 0178185 113.7316 248.2712 15.02349949 38082 e-st@r-II 1 41459U 16025D 17005.18515851 .00000852 00000-0 49990-4 0 9994 2 41459 98.2044 33.3383 0180294 114.4651 247.5496 15.02261323 38093 AAUSAT4 1 41460U 16025E 17005.72913618 .00002132 00000-0 11923-3 0 9996 2 41460 98.1988 33.9552 0172800 111.0199 250.9590 15.02869864 38186 MinXSS 1 41474U 98067HU 17005.51102424 .00062314 00000-0 45707-3 0 9994 2 41474 51.6419 114.6378 0002012 230.6854 129.3966 15.72536994 36591 CADRE 1 41475U 98067HV 17003.74787607 .12518598 12537-4 55989-3 0 9998 2 41475 51.6110 110.0165 0004040 312.3134 47.7551 16.43344525 36494 NODES 1 1 41477U 98067HX 17005.51060647 .00033539 00000-0 31171-3 0 9994 2 41477 51.6362 118.3281 0001741 190.3304 169.7657 15.67090598 36454 NODES 2 1 41478U 98067HY 17005.84041795 .00030877 00000-0 28910-3 0 9993 2 41478 51.6360 116.7795 0001621 192.0470 168.0488 15.66951266 36502 LO-87 1 41557U 16033B 17005.86246292 .00002110 00000-0 83829-4 0 9995 2 41557 97.4791 85.3362 0013664 214.5841 145.4510 15.26388267 33669 NuSat2 1 41558U 16033C 17005.81668084 .00002234 00000-0 88912-4 0 9993 2 41558 97.4818 85.3168 0013182 213.2730 146.7681 15.26259849 33657 Lapan A3 1 41603U 16040E 17005.89073539 .00000380 00000-0 21308-4 0 9991 2 41603 97.4848 69.6070 0012088 283.6085 162.6617 15.19236416 30016 Swayam 1 41607U 16040J 17005.10898441 .00001860 00000-0 89362-4 0 9994 2 41607 97.4836 68.8750 0013084 287.8572 72.1236 15.20035042 29820 Pratham 1 41783U 16059A 17005.77453319 -.00000042 00000-0 15304-5 0 9991 2 41783 98.1883 68.6345 0033019 311.2351 48.6024 14.62794010 14852 AlSat 1N 1 41789U 16059G 17005.89674634 .00000122 00000-0 32545-4 0 9998 2 41789 98.1914 68.9497 0027322 306.2817 53.5851 14.63995621 14861 ScatSat 1 41790U 16059H 17005.14393918 -.00000007 00000-0 91264-5 0 9998 2 41790 98.0901 61.8852 0010111 291.4586 68.5530 14.50088954 14634 TY-1 1 41844U 16066D 17005.86950823 -.00000070 00000-0 00000 0 0 9991 2 41844 97.4052 15.5385 0017866 87.6255 9.1257 15.21578220 8654 CAS-2T 1 41845U 16066E 17005.82335184 -.00000071 00000-0 00000 0 0 9996 2 41845 98.7815 17.5389 0367570 10.2141 350.6275 14.37678699 8165 Pegasus-1 1 41846U 16066F 17005.64870824 -.00000071 00000-0 00000 0 0 9992 2 41846 98.7853 17.3031 0370112 11.4276 349.5031 14.36825876 8132 STARS-C 1 41895U 98067KR 17005.73002489 .00010973 00000-0 16841-3 0 9996 2 41895 51.6437 128.0793 0005770 72.5347 287.6379 15.54827014 2665 BY70-1 1 41909U 16083C 17005.79282619 .00401843 23582-5 77937-3 0 9999 2 41909 97.5844 83.9725 0204992 334.5270 24.6069 15.72470908 1344 /EX
